User: anonymous   Login
Location: Pacheco
(37.9835°N, 122.0752°W)
Time: 04:02:57
(UTC+00:00)
Language:

CRYOSAT 2 - Orbit

View from above orbital plane
View from above orbital plane
View from above satellite
View from above satellite

Ground track
Ground track

The orbit data is extracted from the following two-line orbital elements,

1 36508U 10013A   24174.87018492  .00000230  00000-0  56335-4 0  9995
2 36508  92.0346 102.4063 0000255 230.1826 129.9359 14.51899070753027
Epoch (UTC): 22 June 2024 20:53:03
Eccentricity: 0.0000255
inclination: 92.0346°
perigee height: 719 km
apogee height: 719 km
right ascension of ascending node: 102.4063°
argument of perigee: 230.1826°
revolutions per day: 14.51899070
mean anomaly at epoch: 129.9359°
orbit number at epoch: 75302

The dashed part of the orbit path shows where the satellite is in the earth's shadow,  

DLR